This is the latest recevied weather packets stored in our database for station/object KD2FKI. If no packets are shown the sender has not sent any weather packets the latest 10 day(s).
| Time | Temp. | Humidity | Pressure | Rain* | Wind** | Luminosity | Snow |
|---|---|---|---|---|---|---|---|
| 1777586433 | 18.33° C | 45% | - | 0 mm | - | - | - |
| 1777585844 | 19.44° C | 44% | - | 0 mm | - | - | - |
| 1777585231 | 20° C | 44% | - | 0 mm | - | - | - |
| 1777584641 | 19.44° C | 42% | - | 0 mm | - | - | - |
| 1777584047 | 18.89° C | 43% | - | 0 mm | - | - | - |
| 1777583435 | 19.44° C | 43% | - | 0 mm | - | - | - |
| 1777582843 | 18.89° C | 45% | - | 0 mm | - | - | - |
| 1777582237 | 19.44° C | 41% | - | 0 mm | - | - | - |
| 1777581641 | 18.89° C | 41% | - | 0 mm | - | - | - |
| 1777581030 | 18.89° C | 40% | - | 0 mm | - | - | - |
| 1777580439 | 20° C | 39% | - | 0 mm | - | - | - |
| 1777579848 | 19.44° C | 39% | - | 0 mm | - | - | - |
| 1777579254 | 19.44° C | 38% | - | 0 mm | - | - | - |
| 1777578645 | 20° C | 38% | - | 0 mm | - | - | - |
| 1777578033 | 21.11° C | 37% | - | 0 mm | - | - | - |
| 1777577440 | 21.11° C | 38% | - | 0 mm | - | - | - |
| 1777576832 | 20.56° C | 39% | - | 0 mm | - | - | - |
| 1777576240 | 20.56° C | 39% | - | 0 mm | - | - | - |
| 1777575664 | 21.11° C | 37% | - | 0 mm | - | - | - |
| 1777575054 | 21.11° C | 40% | - | 0 mm | - | - | - |
| 1777574445 | 21.11° C | 41% | - | 0 mm | - | - | - |
| 1777573852 | 21.11° C | 41% | - | 0 mm | - | - | - |
| 1777573241 | 21.11° C | 40% | - | 0 mm | - | - | - |
| 1777572630 | 21.11° C | 40% | - | 0 mm | - | - | - |
| 1777572037 | 21.11° C | 43% | - | 0 mm | - | - | - |
* Rain latest hour (hover to see other rain measurements)
** Current wind speed in m/s (hover to see current wind gust speed)